Location: Unspecified
(33.3110°N, 0.0000°E)
Time: 16:21:26
(UTC+00:00)

ARIANE 6 FM1 Upper Stage - Visible Passes

Search period start: 04 April 2026 00:00
Search period end: 14 April 2026 00:00
Orbit: 524 x 605 km, 62.0° (Epoch: 29 March)

Date Brightness Start Highest point End Pass type
(mag) Time Alt. Az. Time Alt. Az. Time Alt. Az.
6 Apr 5.7 04:22:15 10° NNE 04:23:55 12° NE 04:25:36 10° ENE visible
6 Apr 2.8 19:54:16 10° SSW 19:57:59 50° SE 19:57:59 50° SE visible
7 Apr 5.5 04:21:00 10° N 04:23:44 18° NE 04:26:29 10° E visible
7 Apr 2.5 19:53:45 10° SSW 19:57:57 84° ESE 20:02:04 10° NNE visible
8 Apr 4.9 04:20:09 10° N 04:23:30 26° NE 04:26:51 10° ESE visible
8 Apr 3.1 19:53:26 10° SW 19:57:36 61° WNW 20:01:39 10° NNE visible
9 Apr 4.0 04:19:29 10° NNW 04:23:12 39° NE 04:26:57 10° SE visible
9 Apr 4.1 19:53:19 10° SW 19:57:15 39° NW 20:01:07 10° NNE visible
10 Apr 3.0 04:18:56 10° NNW 04:22:52 63° ENE 04:26:48 10° SE visible
10 Apr 4.9 19:53:25 10° WSW 19:56:57 26° NW 20:00:26 10° N visible
11 Apr 2.4 04:18:31 10° NW 04:22:28 80° WSW 04:26:27 10° SSE visible
11 Apr 5.6 19:53:47 10° W 19:56:41 18° NW 19:59:33 10° N visible
12 Apr 5.7 02:40:49 10° NNE 02:42:51 14° NE 02:44:52 10° ENE visible
12 Apr 2.7 04:18:14 10° NW 04:22:03 48° WSW 04:25:53 10° SSE visible
12 Apr 5.9 19:54:35 10° WNW 19:56:28 13° NW 19:58:19 10° NNW visible
13 Apr 5.3 02:44:19 15° E 02:44:19 15° E 02:45:32 10° E visible
13 Apr 3.3 04:20:44 27° W 04:21:35 30° WSW 04:25:04 10° S visible
